DW3777 Weather Reports


time (UTC)temp
C
wind
direction
speed
KPH
gust
KPH
rain 1hr
cm
rain 24hr
cm
rain mn
cm
humidity
%
barometer
mb
20260505061518 1 326 9.7 19.3 0.00 0.05 0.00 85 996.6
20260505060022 1 330 8.0 16.1 0.00 0.05 0.00 84 996.6
20260505054520 1 75 3.2 8.0 0.00 0.08 0.00 83 996.5
20260505053017 1 80 3.2 6.4 0.00 0.08 0.00 83 996.5
20260505051512 1 78 1.6 16.1 0.00 0.08 0.00 83 996.5
20260505041521 0 198 1.6 8.0 0.00 0.08 0.00 87 996.3
20260505040010 0 263 3.2 6.4 0.00 0.08 0.00 88 996.3
20260505034509 0 20 0.0 9.7 0.00 0.10 0.00 87 996.4
20260505033005 0 11 1.6 8.0 0.00 0.10 0.00 86 996.3
20260505031505 0 355 3.2 8.0 0.00 0.10 0.00 85 996.2
20260505030004 0 117 0.0 4.8 0.00 0.10 0.00 83 996.1
20260505024503 0 53 1.6 6.4 0.00 0.10 0.00 81 996.1
20260505023002 0 341 8.0 16.1 0.00 0.10 0.00 83 996.2
20260505021601 0 54 0.0 11.3 0.00 0.10 0.00 83 996.1
20260505020059 0 289 11.3 19.3 0.00 0.10 0.00 89 996.0
20260505014618 0 217 4.8 6.4 0.00 0.10 0.00 90 996.0
20260505013055 0 232 4.8 6.4 0.00 0.10 0.00 90 996.0
20260505011603 0 227 4.8 6.4 0.00 0.10 0.00 91 996.1
20260505010056 0 261 3.2 4.8 0.00 0.10 0.00 91 996.2
20260505004553 0 213 4.8 6.4 0.00 0.10 0.00 91 996.1
20260505003051 0 230 3.2 6.4 0.00 0.10 0.00 90 996.2
20260505001602 0 234 4.8 6.4 0.00 0.10 0.00 89 996.2
20260505000103 0 90 0.0 3.2 0.00 0.10 0.00 87 996.2
20260504234604 0 75 0.0 6.4 0.00 0.10 0.00 86 996.1
20260504233045 0 62 1.6 4.8 0.00 0.10 0.00 82 996.1
20260504231540 0 65 4.8 6.4 0.00 0.10 0.00 80 996.0
20260504230039 0 348 0.0 1.6 0.00 0.10 0.00 79 996.0
20260504224539 0 103 0.0 3.2 0.00 0.10 0.00 79 995.9
20260504223036 1 75 0.0 17.7 0.00 0.10 0.00 78 995.8
20260504221534 1 293 14.5 19.3 0.00 0.10 0.00 77 995.7
20260504220028 1 300 14.5 19.3 0.00 0.10 0.00 77 995.6
20260504214527 1 309 3.2 14.5 0.00 0.10 0.10 77 995.6
20260504213045 1 295 12.9 19.3 0.00 0.10 0.10 77 995.7
20260504211525 1 290 14.5 20.9 0.00 0.10 0.10 78 995.8
20260504210026 1 297 14.5 20.9 0.00 0.10 0.10 78 995.7
20260504204524 1 285 14.5 19.3 0.00 0.10 0.10 79 995.8
20260504203023 1 292 12.9 17.7 0.00 0.10 0.10 77 995.6
20260504201526 1 290 14.5 17.7 0.00 0.10 0.10 79 995.7
20260504200022 1 281 12.9 16.1 0.00 0.10 0.10 78 995.6
20260504194522 2 299 8.0 12.9 0.00 0.10 0.10 78 995.7
20260504193019 1 322 0.0 6.4 0.00 0.10 0.10 79 995.6
20260504191520 2 217 0.0 4.8 0.00 0.10 0.10 80 995.5
20260504190018 2 280 6.4 12.9 0.00 0.10 0.10 78 995.4
20260504184518 2 50 1.6 14.5 0.00 0.10 0.10 79 995.4
20260504183021 1 297 11.3 16.1 0.00 0.10 0.10 80 995.3
20260504181516 2 275 6.4 17.7 0.00 0.10 0.10 80 995.3
20260504180015 2 306 1.6 8.0 0.00 0.10 0.10 77 995.2
20260504174515 2 290 6.4 8.0 0.00 0.10 0.10 77 995.2
20260504173025 2 24 4.8 8.0 0.00 0.10 0.10 80 995.0
20260504171520 2 5 6.4 14.5 0.00 0.10 0.10 80 995.0
20260504140108 2 223 11.3 22.5 0.00 0.05 0.05 75 995.2
20260504081526 2 209 12.9 24.1 0.00 0.10 0.05 71 995.2